Location: B?jaj?g
(11.7167°N, 92.6667°E)
Time: 09:54:48
(UTC+00:00)

N. Korean satellite - Visible Passes

Search period start: 26 September 2021 00:00
Search period end: 06 October 2021 00:00
Orbit: 449 x 498 km, 97.3° (Epoch: 25 September)

Date Brightness Start Highest point End Pass type
(mag) Time Alt. Az. Time Alt. Az. Time Alt. Az.
26 Sep 9.8 22:04:17 10° ENE 22:06:23 15° E 22:08:30 10° SE visible
27 Sep 7.0 23:08:14 10° N 23:11:40 41° WNW 23:15:07 10° SSW visible
28 Sep 7.1 22:40:21 10° NNE 22:43:55 61° E 22:47:32 10° S visible
29 Sep 9.3 22:13:20 10° NE 22:16:08 21° E 22:18:57 10° SSE visible
01 Oct 6.5 22:49:57 10° N 22:53:35 88° W 22:57:15 10° SSW visible
02 Oct 8.7 22:22:32 10° NE 22:25:46 30° E 22:29:00 10° SSE visible
03 Oct 10.1 21:56:50 10° E 21:57:54 11° E 21:58:59 10° ESE visible
04 Oct 6.6 22:59:33 10° N 23:03:07 59° WNW 23:06:44 10° SSW visible
05 Oct 7.9 22:31:48 10° NNE 22:35:17 43° E 22:38:47 10° S visible
